This demonstration page uses our WeatherBlox Daily Observations layout. Learn more.

Hourly Observations for September 8, 2016

Temp ( °F °C ) Dew Point ( °F °C ) Humidity (%) Winds ( mph kmh ) Pressure ( in mb ) Visibility ( mi km ) Precip ( " mm )
12:15 am 00:15 Clear 64 18 63 17 94 94 W 3 6 29.91 1013 7 11.265408 0 0
12:35 am 00:35 Clear 66 18.7 64 17.6 93 93 WNW 3 6 29.91 1013 10 16.09344 0 0
12:55 am 00:55 Clear 66 19 64 17.6 92 92 WNW 5 7 29.91 1013 7 11.265408 0 0
1:15 am 01:15 Clear 66 18.7 63 17.3 92 92 WNW 5 7 29.91 1013 10 16.09344 0 0
1:35 am 01:35 Clear 65 18.2 63 17 93 93 NW 3 6 29.91 1013 7 11.265408 0 0
1:55 am 01:55 Clear 65 18.3 63 17 92 92 NNW 3 6 29.91 1013 7 11.265408 0 0
2:15 am 02:15 Clear 64 18 62 16.7 92 92 NNW 3 6 29.91 1013 7 11.265408 0 0
2:35 am 02:35 Clear 65 18.5 63 17.3 93 93 NW 5 7 29.91 1013 10 16.09344 0 0
2:55 am 02:55 Clear 64 18 62 16.8 93 93 Calm 29.91 1013 7 11.265408 0 0
3:15 am 03:15 Clear 64 17.9 62 16.9 94 94 NNW 5 7 29.91 1013 7 11.265408 0 0
3:35 am 03:35 Clear 64 17.8 62 16.8 94 94 N 5 7 29.91 1013 7 11.265408 0 0
3:55 am 03:55 Clear 64 17.5 62 16.4 93 93 N 5 7 29.91 1013 10 16.09344 0 0
4:15 am 04:15 Clear 63 17.2 61 16 93 93 N 6 9 29.91 1013 10 16.09344 0 0
4:35 am 04:35 Clear 63 17 61 16 94 94 N 6 9 29.91 1013 10 16.09344 0 0
4:55 am 04:55 Clear 63 17 60 15.8 93 93 N 5 7 29.91 1013 10 16.09344 0 0
5:15 am 05:15 Clear 62 16.7 60 15.5 93 93 Calm 29.91 1013 10 16.09344 0 0
5:35 am 05:35 Clear 61 16.3 59 15.1 93 93 N 6 9 29.91 1013 10 16.09344 0 0
5:55 am 05:55 Clear 60 15.8 58 14.7 93 93 NNE 5 7 29.97 1015 10 16.09344 0 0
6:15 am 06:15 Clear 60 15.8 58 14.7 93 93 NE 5 7 29.97 1015 10 16.09344 0 0
6:35 am 06:35 Clear 60 15.4 58 14.3 93 93 NE 5 7 29.97 1015 10 16.09344 0 0
6:55 am 06:55 Clear 59 15.2 57 14.1 93 93 NNE 6 9 29.97 1015 10 16.09344 0 0
7:15 am 07:15 Partly Cloudy 59 15.2 57 14 93 93 NNE 6 9 29.97 1015 10 16.09344 0 0
7:35 am 07:35 Cloudy 61 16 58 14.6 91 91 NE 8 13 29.94 1014 10 16.09344 0 0
7:55 am 07:55 Cloudy 61 16.2 58 14.7 91 91 NE 10 17 29.94 1014 10 16.09344 0 0
8:15 am 08:15 Mostly Cloudy 62 16.5 59 15 91 91 NE 9 15 29.94 1014 10 16.09344 0 0
8:35 am 08:35 Partly Cloudy 63 17.1 60 15.5 90 90 NE 9 15 29.97 1015 10 16.09344 0 0
8:55 am 08:55 Sunny 64 17.6 60 15.8 89 89 NE 10 17 29.94 1014 10 16.09344 0 0
9:15 am 09:15 Sunny 64 18 60 15.7 87 87 NE 13 20 29.94 1014 10 16.09344 0.03 0.762
9:35 am 09:35 Sunny 65 18.6 60 15.6 83 83 NE 9 15 29.97 1015 N/A 0.03 0.762
9:55 am 09:55 Sunny with Thunderstorms 65 18.5 60 15.8 84 84 NE 10 17 29.97 1015 10 16.09344 0.03 0.762
10:15 am 10:15 Sunny 66 19 61 16 83 83 ENE 14 22 29.97 1015 10 16.09344 0 0
10:35 am 10:35 Sunny 67 19.4 60 15.3 77 77 ENE 12 19 29.97 1015 10 16.09344 0 0
10:55 am 10:55 Sunny 68 20.1 59 15.1 73 73 E 14 22 29.94 1014 10 16.09344 0 0
11:15 am 11:15 Sunny 71 21.4 59 15.2 68 68 E 14 22 29.91 1013 10 16.09344 0 0
11:35 am 11:35 Sunny 71 21.5 59 14.8 66 66 ESE 15 24 29.91 1013 10 16.09344 0 0
11:55 am 11:55 Sunny 72 22.2 59 15.1 64 64 E 13 20 29.91 1013 10 16.09344 0 0
12:15 pm 12:15 Partly Cloudy 73 23 59 15.2 62 62 E 13 20 29.91 1013 10 16.09344 0 0
12:35 pm 12:35 Partly Cloudy 74 23.5 60 15.4 61 61 E 13 20 29.88 1012 10 16.09344 0 0
12:55 pm 12:55 Mostly Cloudy 75 23.7 60 15.6 61 61 ESE 13 20 29.85 1011 10 16.09344 0 0
1:15 pm 13:15 Cloudy 75 23.7 61 16.1 63 63 E 9 15 29.85 1011 10 16.09344 0 0
1:35 pm 13:35 Cloudy 76 24.2 62 16.8 63 63 ESE 10 17 29.85 1011 10 16.09344 0 0
1:55 pm 13:55 Cloudy 75 24 63 17.1 65 65 SE 12 19 29.85 1011 10 16.09344 0 0
2:15 pm 14:15 Cloudy 76 24.5 64 17.6 66 66 ESE 12 19 29.85 1011 10 16.09344 0 0
2:35 pm 14:35 Cloudy 76 24.5 64 17.6 66 66 ESE 9 15 29.85 1011 10 16.09344 0 0
2:55 pm 14:55 Mostly Cloudy 76 24.5 65 18.1 68 68 SE 9 15 29.83 1010 10 16.09344 0 0
3:15 pm 15:15 Cloudy 75 24 65 18.5 71 71 SE 8 13 29.83 1010 10 16.09344 0 0
3:35 pm 15:35 Cloudy 76 24.3 66 19.1 73 73 SE 9 15 29.8 1009 10 16.09344 0 0
3:55 pm 15:55 Cloudy 75 24.1 66 19.1 74 74 ESE 12 19 29.8 1009 10 16.09344 0 0
4:15 pm 16:15 Cloudy 76 24.3 67 19.3 74 74 ESE 9 15 29.8 1009 10 16.09344 0 0
4:35 pm 16:35 Cloudy 76 24.5 67 19.7 75 75 SE 12 19 29.8 1009 10 16.09344 0 0
4:55 pm 16:55 Cloudy 76 24.4 68 19.8 76 76 SE 8 13 29.8 1009 10 16.09344 0 0
5:15 pm 17:15 Cloudy 75 23.8 68 20 79 79 SSE 8 13 29.8 1009 7 11.265408 0 0
5:35 pm 17:35 Cloudy 74 23.6 68 20 80 80 SE 7 11 29.8 1009 7 11.265408 0 0
5:55 pm 17:55 Cloudy 75 23.7 68 20.1 80 80 SE 7 11 29.77 1008 7 11.265408 0 0
6:15 pm 18:15 Cloudy 74 23.5 69 20.3 82 82 SSE 3 6 29.77 1008 7 11.265408 0 0
6:35 pm 18:35 Cloudy 74 23.5 69 20.4 83 83 SE 5 7 29.77 1008 7 11.265408 0 0
6:55 pm 18:55 Cloudy 74 23.5 69 20.4 83 83 ESE 3 6 29.77 1008 7 11.265408 0 0
7:15 pm 19:15 Cloudy 74 23.3 69 20.5 84 84 E 3 6 29.77 1008 7 11.265408 0 0
7:35 pm 19:35 Mostly Cloudy 73 23 69 20.5 86 86 ESE 3 6 29.77 1008 7 11.265408 0 0
7:55 pm 19:55 Mostly Cloudy 73 22.9 69 20.6 87 87 ESE 3 6 29.77 1008 7 11.265408 0 0
8:15 pm 20:15 Cloudy 73 22.5 69 20.6 89 89 ESE 3 6 29.77 1008 7 11.265408 0 0
8:35 pm 20:35 Partly Cloudy 72 22.1 69 20.4 90 90 ESE 5 7 29.77 1008 7 11.265408 0 0
8:55 pm 20:55 Clear with Mist and Fog 71 21.4 68 20.1 92 92 ESE 5 7 29.8 1009 5 8.04672 0 0
9:15 pm 21:15 Clear with Mist and Fog 71 21.4 68 20.1 92 92 SE 6 9 29.8 1009 4 6.437376 0 0
9:35 pm 21:35 Clear with Mist and Fog 70 21.3 68 20.2 93 93 SE 3 6 29.8 1009 4 6.437376 0 0
9:55 pm 21:55 Clear with Mist and Fog 70 21.1 68 20.1 94 94 SE 3 6 29.8 1009 4 6.437376 0 0
10:14 pm 22:14 Clear with Mist and Fog 70 21 68 20 94 94 ESE 7 11 29.8 1009 3 4.828032 0 0
10:15 pm 22:15 Clear with Mist and Fog 69 20.7 67 19.7 94 94 ESE 7 11 29.8 1009 3 4.828032 0 0
10:35 pm 22:35 Clear with Mist and Fog 69 20.8 68 20 95 95 ESE 6 9 29.8 1009 2.5 4.02336 0 0
10:55 pm 22:55 Partly Cloudy with Mist and Fog 70 21 68 20.1 95 95 SE 5 7 29.77 1008 3 4.828032 0 0
11:15 pm 23:15 Clear with Mist and Fog 69 20.8 68 20 95 95 SE 5 7 29.8 1009 3 4.828032 0 0
11:35 pm 23:35 Clear with Mist and Fog 69 20.5 67 19.7 95 95 SE 3 6 29.8 1009 3 4.828032 0 0
11:55 pm 23:55 Partly Cloudy with Mist and Fog 69 20.8 68 20 95 95 SE 6 9 29.8 1009 4 6.437376 0 0

Powered by AerisWeather